Location: Piotrkow Trybunalski
(51.4000°N, 19.6830°E)
Time: 06:43:49
(UTC+02:00)

STRAND 1 - Pass Details

Date: 01 March 2024
Orbit: 764 x 779 km, 98.4° (Epoch: 24 April)

Event Time Altitude Azimuth Distance (km) Brightness Sun altitude
Rises 18:06:29 0° 17° (NNE) 3,269 ? -7.7°
Reaches altitude 10° 18:08:51 10° 20° (NNE) 2,335 ? -8.0°
Maximum altitude 18:13:57 62° 102° (ESE) 872 ? -8.8°
Drops below altitude 10° 18:18:59 10° 183° (S) 2,308 ? -9.6°
Sets 18:21:18 0° 186° (S) 3,228 ? -10.0°
